Tracking 18840 objects as of 20-November-2017
HD Live streaming from Space Station
objects crossing your sky now

WESTAR 3

Track WESTAR 3 now!
WESTAR 3 is classified as:


NORAD ID: 11484
Int'l Code: 1979-072A
Perigee: 35,855.7 km
Apogee: 35,919.6 km
Inclination: 14.6 °
Period: 1,440.9 minutes
Semi major axis: 42258 km
RCS: 3.6567 m2 (large)
Launch date: August 10, 1979
Source: United States (US)
Launch site: AIR FORCE EASTERN TEST RANGE (AFETR)
aabbcc
Your satellite tracking list
Your tracking list is empty




NASA's NSSDC Master Catalog

Two Line Element Set (TLE):
1 11484U 79072A   17323.07149762 -.00000116 +00000-0 +00000-0 0  9994
2 11484 014.5837 348.1573 0007560 269.3407 089.3815 00.99937745109207
Source of the keplerian elements: AFSPC